Starlink 31027

operational
NORAD ID: 58720 Int'l Des: 2024-002 Owner: SPXS Country: US Constellation: starlink
LEOCIRCULAR

About Starlink 31027

Description loading...

Live Position

Loading 3D Globe...

Upcoming Passes

Altitude History

Altitude vs Time

uPlot chart will show altitude changes over time

Two-Line Element Set

1 58720U 24002R 26015.65879294 .00011254 00000-0 37462-3 0 9992
2 58720 53.1589 115.7250 0001983 45.9260 314.1905 15.31634293113907
Epoch: Jan 15, 2026 • Age: 12 hours

Current Status

Altitude 479.8 km
Velocity 7.63 km/s
Sub-Earth Point -29.62°S, 89.97°W
Launch Date Jan 3, 2024
Age 2 years
Type internet

Technical Details

Classification Payload
Mass 730.00 kg
Dry Mass 700.00 kg
Total Mass 730.00 kg
Length 0.30 m
Diameter 4.10 m
Span 29.00 m
Shape Box + pan
Manufacturer SPXS
Bus Type Starlink V2M
Phase Status In Orbit
Owner/State SPXS/US

Large Constellations

Loading constellations...